Location: Albany
(35.0170°S, 117.8920°E)
Time: 17:30:18
(UTC+08:00)

Explorer 11/Cluster Stage 4 - Pass Details

Date: 27 January 2021
Orbit: 467 x 1257 km, 28.8° (Epoch: 02 March)

Event Time Altitude Azimuth Distance (km) Brightness Sun altitude
Rises 11:48:47 0° 275° (W) 3,133 9.6 71.9°
Reaches altitude 10° 11:51:55 10° 290° (WNW) 2,058 8.9 72.2°
Maximum altitude 11:55:25 21° 338° (NNW) 1,341 8.3 72.4°
Drops below altitude 10° 11:58:30 10° 28° (NNE) 1,779 8.8 72.6°
Sets 12:00:59 0° 45° (NE) 2,585 9.5 72.8°
